User: anonymous   Login
Location: Banksville Park
(38.5557°N, 75.1182°W)
Time: 14:57:41
(UTC+00:00)
Language:

Cosmos 2034 Rocket - Orbit

View from above orbital plane
View from above orbital plane
View from above satellite
View from above satellite

Ground track
Ground track

The orbit data is extracted from the following two-line orbital elements,

1 20150U 89059B   20340.49916976  .00000060  00000-0  46389-4 0  9999
2 20150  82.9421 233.9291 0028871 346.3526 186.8751 13.75640601574623
Epoch (UTC): 05 December 2020 11:58:48
Eccentricity: 0.0028871
inclination: 82.9421°
perigee height: 958 km
apogee height: 1000 km
right ascension of ascending node: 233.9291°
argument of perigee: 346.3526°
revolutions per day: 13.75640601
mean anomaly at epoch: 186.8751°
orbit number at epoch: 57462

The dashed part of the orbit path shows where the satellite is in the earth's shadow,  

DLR